Regional Weather Roundup
Issued by NWS Cleveland, OH

Home | Current Version | Previous Version | Graphics & Text | Print | Product List | Glossary On
Versions: 1 2 3 4 5 6 7 8 9 10 11 12 13 14 15 16 17 18 19 20 21 22 23 24 25 26 27 28 29 30 31 32 33 34 35 36 37 38 39 40 41 42 43 44 45 46 47 48 49 50
000
ASUS41 KCLE 032110
RWRCLE
OHIO REGIONAL WEATHER ROUNDUP
NATIONAL WEATHER SERVICE WILMINGTON, OH
500 PM EDT THU SEP 03 2015

NOTE: "FAIR" INDICATES FEW OR NO CLOUDS BELOW 12,000 FEET WITH NO
SIGNIFICANT WEATHER AND/OR OBSTRUCTIONS TO VISIBILITY.

OHZ001>008-015>018-024>027-034-035-043-044-032200-
   NORTHWEST OHIO

CITY           SKY/WX    TMP DP  RH WIND       PRES   REMARKS
DEFIANCE       MOSUNNY   89  66  46 SW8       29.90F HX  91
FINDLAY        MOSUNNY   89  66  46 W14       29.91F HX  91
TOLEDO EXPRESS MOSUNNY   89  65  44 W16       29.89F HX  91
TOLEDO EXEC    MOSUNNY   90  64  42 SW14      29.90F HX  91
LIMA           MOSUNNY   88  67  49 W13       29.93F HX  91
$$

OHZ009>014-019>023-028>033-038-089-032200-
   NORTHEAST OHIO

CITY           SKY/WX    TMP DP  RH WIND       PRES   REMARKS
CLE-HOPKINS    MOSUNNY   87  66  49 N10       29.94F
CLE-LAKEFRONT  SUNNY     83  72  69 N5        29.91F
CUY CO. ARPT   MOSUNNY   86  72  62 NW9       29.94F HAZE    HX  92
LORAIN-ELYRIA  MOSUNNY   86  69  56 NW6       29.94S HX  90
ASHTABULA      SUNNY     83  67  58 W8        29.94F
AKRON-CANTON   TSTM      70  64  81 NW8       29.97F
WOOSTER        RAIN      69  66  90 SW12G20   29.99R FOG
MANSFIELD      CLOUDY    77  65  66 SW5       29.98S
YOUNGSTOWN     MOSUNNY   88  63  43 N9        29.93F
$$

OHZ042-051>053-060>062-070>072-077>081-032200-
  SOUTHWEST OHIO

CITY           SKY/WX    TMP DP  RH WIND       PRES   REMARKS
CINC-COVINGTON MOSUNNY   89  63  41 W6        29.96F HX  90
CINC-LUNKEN    MOSUNNY   89  65  44 W6        29.94F HX  91
HAMILTON       MOSUNNY   91  65  41 VRB7      29.95F HX  93
DAYTON         MOSUNNY   90  64  42 W14       29.96F HX  91
WRIGHT-PAT AFB MOSUNNY   89  66  46 W9        29.94F HX  91
DAYTON GENERAL SUNNY     88  64  44 W10       29.95F
WILMINGTON     SUNNY     88  66  48 W9        29.96F HX  90
$$

OHZ036-037-039>041-045>050-054>059-063>069-073>076-082>088-032200-
  CENTRAL AND SOUTHEAST OHIO

CITY           SKY/WX    TMP DP  RH WIND       PRES   REMARKS
COLUMBUS       LGT RAIN  81  70  69 NW10G16   29.94F
OSU AIRPORT    PTSUNNY   87  67  51 NW8       29.94F HX  90
BOLTON FIELD   SUNNY     88  70  55 W5        29.95F HX  92
RICKENBACK AFB MOSUNNY   85  66  54 W3        29.94F
NEWARK         MOSUNNY   83  68  60 W7        29.96R
MARION         PTSUNNY   79  69  71 CALM      29.95F
LANCASTER      MOSUNNY   86  67  52 SW6       29.95F
ZANESVILLE     CLOUDY    84  67  56 S7        29.97
NEW PHILLY     TSTM      73  69  87 N5        29.96S
$$


USA.gov is the U.S. government's official web portal to all federal, state and local government web resources and services.